Regional Weather Roundup
Issued by NWS

Home | Current Version | Previous Version | Text Only | Print | Product List | Glossary Off
Versions: 1 2 3 4 5 6 7 8 9 10 11 12 13 14 15 16 17 18 19 20 21 22 23 24 25 26 27 28 29

000
ASUS45 KTFX 311410
RWRMT
MONTANA REGIONAL WEATHER ROUNDUP
NATIONAL WEATHER SERVICE GREAT FALLS MT
800 AM MDT WED AUG 31 2016

NOTE: "FAIR" INDICATES FEW OR NO CLOUDS BELOW 12000 FEET WITH NO
SIGNIFICANT WEATHER AND/OR OBSTRUCTIONS TO VISIBILITY.

MTZ001>007-043-311500-
WEST OF THE DIVIDE

CITY           SKY/WX    TMP DP  RH WIND       PRES   REMARKS
KALISPELL      SUNNY     52  50  93 VRB6      29.96R
MISSOULA       MOSUNNY   55  40  56 CALM      30.00R
BUTTE          SUNNY     49  34  56 NE3       30.14S
MULLAN PASS    CLEAR     60  29  30 N3        30.12S
DEER LODGE       N/A     57  37  47 CALM      30.10R
EUREKA           N/A     54  46  76 CALM      30.00R
HAMILTON         N/A     57  39  51 NE3       29.99F
LIBBY            N/A     52  43  71 CALM      29.99R
$$

MTZ008-052>055-311500-
SOUTHWEST MONTANA

CITY           SKY/WX    TMP DP  RH WIND       PRES   REMARKS
BOZEMAN        SUNNY     58  43  57 CALM      30.09R
DILLON         CLOUDY    55  31  39 S9        30.12R
W YELLOWSTONE  CLOUDY    37  27  65 CALM      30.29S HAZE
ENNIS          SUNNY     57  27  30 CALM      30.18S
THREE FORKS      N/A     49  44  83 CALM      30.06S
TWIN BRIDGES     N/A     48  33  56 CALM      30.08S
$$

MTZ009-010-012-014-046-048-049-054-311500-
EAST SLOPES AND CENTRAL MONTANA

CITY           SKY/WX    TMP DP  RH WIND       PRES   REMARKS
CUT BANK       SUNNY     53  48  83 NW5       30.00S
GREAT FALLS    SUNNY     58  47  66 CALM      29.98S
MALMSTROM AFB  SUNNY     58  49  74 W6        29.98F
HELENA         CLOUDY    56  40  55 CALM      30.05S
CHOTEAU          N/A     57  48  72 CALM      30.02S HAZE
CONRAD           N/A     51  51 100 CALM      30.01F
$$

MTZ011-013-016-021-045-047-050-051-311500-
NORTH CENTRAL MONTANA

CITY           SKY/WX    TMP DP  RH WIND       PRES   REMARKS
HAVRE          CLOUDY    61  57  87 E10       29.95F
LEWISTOWN      MOSUNNY   62  47  57 CALM      30.03S
N BAR RANCH      N/A     72  36  26 CALM      30.08S
CHINOOK          N/A     61  57  88 E3        29.97S
$$

MTZ017>020-022>027-061-062-311500-
NORTHEAST MONTANA

CITY           SKY/WX    TMP DP  RH WIND       PRES   REMARKS
GLASGOW        MOSUNNY   66  55  67 E15       29.98S
JORDAN           N/A     60  54  80 W3        29.98S
WOLF POINT     CLOUDY    67  55  65 E13       30.02S
PLENTYWOOD       N/A     64  54  68 E15       30.08F
POPLAR           N/A     66  55  68 E10       30.03S
$$

MTZ028>42-056>058-311500-
SOUTHCENTRAL AND SOUTHEAST MONTANA

CITY           SKY/WX    TMP DP  RH WIND       PRES   REMARKS
BAKER          SUNNY     62  56  80 SE9       30.12F
BILLINGS       CLOUDY    69  45  41 CALM      30.04S
LIVINGSTON     CLOUDY    58  42  55 NW7       30.11R
MILES CITY     PTSUNNY   72  52  49 SE14      30.02S
FORSYTH          N/A     72  52  49 E5        30.00S
LAUREL           N/A     63  44  49 W2        30.03R
ROUNDUP          N/A     60  45  57 S7        29.95S
$$

REGIONAL REPORTS...DAKOTAS

CITY           SKY/WX    TMP DP  RH WIND       PRES   REMARKS
WILLISTON      SUNNY     68  56  65 SE10      30.11S
MINOT          PTSUNNY   63  54  72 E10       30.20S
DICKINSON      CLOUDY    60  59  96 SE15      30.14S
CROSBY           N/A     57  54  88 E15G21    30.17R
WATFORD CITY     N/A     64  55  72 SE16G22   30.12S
BISMARCK       CLOUDY    65  59  81 E12       30.20R
GRAND FORKS    PTSUNNY   58  52  80 N3        30.28R
FARGO          SUNNY     61  56  83 CALM      30.26R
BUFFALO SD       N/A     63  59  87 SE6       30.10R
RAPID CITY     SUNNY     62  58  86 SE8       30.19S
$$

REGIONAL REPORTS...WYOMING/IDAHO/WASHINGTON

CITY           SKY/WX    TMP DP  RH WIND       PRES   REMARKS
GILLETTE       CLOUDY    62  52  69 SE10      30.19S
SHERIDAN       MOSUNNY   61  43  51 CALM      30.09S
BUFFALO WY     CLOUDY    69  41  36 S9        30.17F
CODY           CLOUDY    61  37  41 CALM      30.18S
YELLOWSTONE LA   N/A     45  35  68 CALM      30.39S
IDAHO FALLS    MOSUNNY   57  39  51 NW8       30.09S
SALMON         MOSUNNY   61  34  36 NE7       30.02F
BOISE          MOCLDY    63  37  38 S6        29.92R
SPOKANE        PTCLDY    56  40  55 S5        29.97S
$$

REGIONAL REPORTS...ALBERTA

CITY           SKY/WX    TMP DP  RH WIND       PRES   REMARKS
EDMONTON       MOSUNNY   54  50  87 SE7       29.92F
CALGARY        CLOUDY    55  52  88 NE3       29.98R
LETHBRIDGE     PTSUNNY   57  54  88 VRB6      29.95R
MEDICINE HAT   CLOUDY    63  57  82 NE8       29.92F
MILK RIVER       N/A     57  50  77 W6          N/A
$$

REGIONAL REPORTS...SASKATCHEWAN

CITY           SKY/WX    TMP DP  RH WIND       PRES   REMARKS
SWIFT CURRENT  PTSUNNY   59  50  72 E17G24    30.04F
REGINA         PTSUNNY   61  50  67 E18G29    30.15S
SASKATOON      PTSUNNY   59  48  67 SE21      30.15S
CYPRESS HILLS    N/A     61  54  77 E9          N/A
VAL MARIE        N/A     64  52  63 E16         N/A
ROCKGLEN         N/A     59  52  77 E5          N/A
ASSINIBOIA       N/A     57  50  77 E8          N/A
$$




USA.gov is the U.S. government's official web portal to all federal, state and local government web resources and services.